Location: Unspecified
(0.0000°N, 0.0000°E)
Time: 20:00:42
(UTC+00:00)

Transit 4A - All Passes

Search period start: 14 July 2020 00:00
Search period end: 24 July 2020 00:00
Orbit: 866 x 979 km, 66.8° (Epoch: 14 July)

Date Brightness Start Highest point End Pass type
(mag) Time Alt. Az. Time Alt. Az. Time Alt. Az.
14 Jul - 00:32:42 10° NE 00:34:40 11° ENE 00:36:36 10° E night (unlit)
14 Jul - 02:14:32 10° NNW 02:20:49 61° WSW 02:27:05 10° S night (unlit)
14 Jul - 13:26:47 10° S 13:32:22 50° ESE 13:37:58 10° NE daylight
14 Jul - 15:16:45 10° W 15:18:28 11° WNW 15:20:11 10° NW daylight
15 Jul - 00:39:24 10° NNE 00:43:59 21° ENE 00:48:34 10° ESE night (unlit)
15 Jul - 02:24:20 10° NW 02:30:06 36° WSW 02:35:50 10° S night (unlit)
15 Jul - 13:35:49 10° SSW 13:41:37 88° ESE 13:47:27 10° NNE daylight
16 Jul - 00:47:35 10° N 00:53:17 35° ENE 00:59:00 10° SE night (unlit)
16 Jul - 02:34:44 10° WNW 02:39:23 21° WSW 02:44:03 10° SSW night (unlit)
16 Jul - 12:03:32 10° ESE 12:04:48 11° ESE 12:06:04 10° E daylight
16 Jul - 13:45:16 10° SW 13:50:53 52° WNW 13:56:32 10° N daylight
17 Jul - 00:56:19 10° N 01:02:35 59° ENE 01:08:49 10° SSE night (unlit)
17 Jul - 02:46:30 10° W 02:48:42 12° WSW 02:50:56 10° SW night (unlit)
17 Jul - 12:09:58 10° SSE 12:14:06 20° ESE 12:18:14 10° ENE daylight
17 Jul - 13:55:11 10° SW 14:00:09 30° WNW 14:05:10 10° N daylight
18 Jul - 01:05:28 10° NNW 01:11:52 84° WSW 01:18:13 10° SSE night (unlit)
18 Jul - 12:18:10 10° S 12:23:23 35° ESE 12:28:37 10° NE daylight
18 Jul - 14:05:49 10° WSW 14:09:27 17° WNW 14:13:06 10° NNW daylight
18 Jul - 23:31:43 10° NE 23:35:00 14° ENE 23:38:15 10° E night (unlit)
19 Jul - 01:15:00 10° NW 01:21:08 50° WSW 01:27:14 10° S night (unlit)
19 Jul - 12:26:56 10° S 12:32:39 62° ESE 12:38:23 10° NNE daylight
19 Jul - 23:39:14 10° NNE 23:44:19 25° ENE 23:49:22 10° ESE night (unlit)
20 Jul - 01:24:58 10° NW 01:30:25 30° WSW 01:35:50 10° SSW night (unlit)
20 Jul - 12:36:08 10° SSW 12:41:54 76° WNW 12:47:43 10° NNE daylight
20 Jul - 23:47:39 10° N 23:53:37 42° ENE 23:59:33 10° SE night (unlit)
21 Jul - 01:35:41 10° WNW 01:39:43 17° WSW 01:43:45 10° SSW night (unlit)
21 Jul - 11:02:19 10° SE 11:05:06 14° ESE 11:07:54 10° E daylight
21 Jul - 12:45:44 10° SW 12:51:10 43° WNW 12:56:39 10° N daylight
21 Jul - 23:56:33 10° NNW 00:02:54 71° ENE 00:09:13 10° SSE night (unlit)
22 Jul - 11:09:47 10° SSE 11:14:24 25° ESE 11:19:01 10° ENE daylight
22 Jul - 12:55:50 10° WSW 13:00:26 25° WNW 13:05:05 10° NNW daylight
23 Jul - 00:05:49 10° NNW 00:12:11 70° WSW 00:18:29 10° SSE night (unlit)
23 Jul - 11:18:13 10° S 11:23:40 43° ESE 11:29:09 10° NE daylight
23 Jul - 13:06:58 10° W 13:09:45 14° WNW 13:12:34 10° NW daylight
23 Jul - 22:31:14 10° NNE 22:35:19 18° ENE 22:39:24 10° ESE night (unlit)
